TimeEDT,TemperatureF,Dew PointF,Humidity,Sea Level PressureIn,VisibilityMPH,Wind Direction,Wind SpeedMPH,Gust SpeedMPH,PrecipitationIn,Events,Conditions,WindDirDegrees,DateUTC
12:15 AM,59.0,47.3,65,30.17,10.0,South,8.1,-,N/A,,Clear,190,2013-10-09 04:15:00
12:36 AM,59.0,47.5,66,30.18,10.0,South,5.8,-,N/A,,Clear,190,2013-10-09 04:36:00
12:55 AM,58.8,47.3,66,30.17,10.0,SSW,5.8,-,N/A,,Clear,200,2013-10-09 04:55:00
1:15 AM,58.3,47.1,66,30.18,10.0,SSW,4.6,-,N/A,,Clear,210,2013-10-09 05:15:00
1:36 AM,57.2,47.3,69,30.18,10.0,SSW,5.8,-,N/A,,Clear,200,2013-10-09 05:36:00
1:55 AM,56.8,47.3,70,30.18,10.0,SSW,5.8,-,N/A,,Clear,200,2013-10-09 05:55:00
2:15 AM,56.3,47.3,72,30.18,10.0,SSW,4.6,-,N/A,,Clear,200,2013-10-09 06:15:00
2:36 AM,55.8,47.3,73,30.19,10.0,South,4.6,-,N/A,,Clear,190,2013-10-09 06:36:00
2:55 AM,55.8,46.9,72,30.18,10.0,South,4.6,-,N/A,,Clear,190,2013-10-09 06:55:00
3:15 AM,55.6,46.9,73,30.18,10.0,South,5.8,-,N/A,,Clear,190,2013-10-09 07:15:00
3:36 AM,55.2,46.8,73,30.19,10.0,SSW,3.5,-,N/A,,Clear,200,2013-10-09 07:36:00
3:55 AM,54.5,46.8,75,30.19,10.0,SSW,3.5,-,N/A,,Clear,210,2013-10-09 07:55:00
4:15 AM,54.3,46.8,76,30.19,10.0,SSW,3.5,-,N/A,,Clear,200,2013-10-09 08:15:00
4:35 AM,53.4,46.6,78,30.20,10.0,South,4.6,-,N/A,,Clear,190,2013-10-09 08:35:00
4:55 AM,53.6,46.8,78,30.20,10.0,SSW,4.6,-,N/A,,Clear,200,2013-10-09 08:55:00
5:16 AM,53.1,46.6,79,30.21,10.0,SSW,3.5,-,N/A,,Clear,200,2013-10-09 09:16:00
5:35 AM,53.6,46.6,77,30.21,10.0,South,4.6,-,N/A,,Clear,190,2013-10-09 09:35:00
5:55 AM,53.8,46.4,76,30.21,10.0,SSW,5.8,-,N/A,,Clear,200,2013-10-09 09:55:00
6:16 AM,54.1,46.4,75,30.22,10.0,SSW,4.6,-,N/A,,Clear,200,2013-10-09 10:16:00
6:35 AM,53.6,45.9,75,30.22,10.0,South,4.6,-,N/A,,Clear,190,2013-10-09 10:35:00
6:55 AM,53.6,45.7,75,30.23,10.0,SSW,5.8,-,N/A,,Clear,200,2013-10-09 10:55:00
7:16 AM,53.8,45.5,74,30.23,10.0,SSW,3.5,-,N/A,,Clear,200,2013-10-09 11:16:00
7:35 AM,53.4,45.1,74,30.23,10.0,South,5.8,-,N/A,,Clear,190,2013-10-09 11:35:00
7:56 AM,53.2,45.1,74,30.24,10.0,South,5.8,-,N/A,,Clear,190,2013-10-09 11:56:00
8:16 AM,53.4,45.0,73,30.24,10.0,SSW,4.6,-,N/A,,Clear,200,2013-10-09 12:16:00
8:35 AM,53.8,45.0,72,30.24,10.0,South,8.1,-,N/A,,Clear,190,2013-10-09 12:35:00
8:56 AM,54.9,44.8,69,30.25,10.0,South,5.8,-,N/A,,Clear,190,2013-10-09 12:56:00
9:15 AM,55.9,45.0,67,30.25,10.0,SSW,8.1,-,N/A,,Clear,200,2013-10-09 13:15:00
9:36 AM,57.4,44.8,63,30.26,10.0,South,6.9,-,N/A,,Clear,190,2013-10-09 13:36:00
9:56 AM,58.6,45.5,62,30.26,10.0,South,8.1,-,N/A,,Clear,180,2013-10-09 13:56:00
10:15 AM,60.3,46.0,59,30.26,10.0,South,8.1,-,N/A,,Clear,170,2013-10-09 14:15:00
10:36 AM,61.7,46.6,58,30.26,10.0,South,4.6,-,N/A,,Clear,190,2013-10-09 14:36:00
10:56 AM,63.9,47.5,55,30.25,10.0,South,5.8,-,N/A,,Clear,190,2013-10-09 14:56:00
11:15 AM,65.3,47.5,52,30.25,10.0,South,6.9,-,N/A,,Clear,190,2013-10-09 15:15:00
11:36 AM,66.2,47.5,51,30.25,10.0,SSW,8.1,-,N/A,,Clear,200,2013-10-09 15:36:00
12:15 PM,68.4,48.4,49,30.24,10.0,SSW,8.1,-,N/A,,Clear,200,2013-10-09 16:15:00
12:36 PM,69.4,48.7,48,30.24,10.0,SSW,10.4,-,N/A,,Clear,200,2013-10-09 16:36:00
12:56 PM,69.6,49.1,48,30.24,10.0,South,6.9,-,N/A,,Clear,190,2013-10-09 16:56:00
1:15 PM,70.9,49.3,46,30.23,10.0,SSW,9.2,-,N/A,,Clear,210,2013-10-09 17:15:00
1:36 PM,71.4,49.3,45,30.23,10.0,SSW,8.1,-,N/A,,Clear,200,2013-10-09 17:36:00
1:56 PM,72.1,49.3,44,30.22,10.0,SW,6.9,-,N/A,,Clear,220,2013-10-09 17:56:00
2:16 PM,72.5,48.7,43,30.22,10.0,SW,8.1,-,N/A,,Clear,230,2013-10-09 18:16:00
2:36 PM,72.5,48.7,43,30.21,10.0,SW,6.9,-,N/A,,Clear,230,2013-10-09 18:36:00
2:55 PM,72.9,49.1,43,30.20,10.0,SW,3.5,-,N/A,,Clear,220,2013-10-09 18:55:00
3:16 PM,73.8,48.9,41,30.20,10.0,SW,6.9,-,N/A,,Clear,230,2013-10-09 19:16:00
3:36 PM,73.4,50.0,44,30.20,10.0,West,5.8,-,N/A,,Clear,260,2013-10-09 19:36:00
3:55 PM,73.0,50.5,45,30.19,10.0,West,3.5,-,N/A,,Clear,270,2013-10-09 19:55:00
4:16 PM,73.2,50.2,44,30.19,10.0,West,4.6,-,N/A,,Clear,260,2013-10-09 20:16:00
4:36 PM,73.0,50.5,45,30.19,10.0,WSW,3.5,-,N/A,,Clear,240,2013-10-09 20:36:00
4:55 PM,73.0,50.4,45,30.18,10.0,SW,3.5,-,N/A,,Clear,230,2013-10-09 20:55:00
5:16 PM,73.0,50.9,46,30.18,10.0,Calm,Calm,-,N/A,,Clear,0,2013-10-09 21:16:00
5:36 PM,73.0,50.4,45,30.18,10.0,Calm,Calm,-,N/A,,Clear,0,2013-10-09 21:36:00
5:55 PM,72.5,51.6,48,30.18,10.0,Calm,Calm,-,N/A,,Clear,0,2013-10-09 21:55:00
6:16 PM,70.5,51.3,50,30.18,10.0,Calm,Calm,-,N/A,,Clear,0,2013-10-09 22:16:00
6:36 PM,66.4,53.1,62,30.18,10.0,Calm,Calm,-,N/A,,Clear,0,2013-10-09 22:36:00
6:56 PM,61.5,54.5,78,30.18,10.0,Calm,Calm,-,N/A,,Clear,0,2013-10-09 22:56:00
7:16 PM,58.1,54.0,86,30.18,10.0,Calm,Calm,-,N/A,,Clear,0,2013-10-09 23:16:00
7:36 PM,55.9,52.2,87,30.19,10.0,Calm,Calm,-,N/A,,Clear,0,2013-10-09 23:36:00
7:56 PM,54.9,52.2,91,30.19,10.0,Calm,Calm,-,N/A,,Clear,0,2013-10-09 23:56:00
8:16 PM,52.9,50.9,93,30.19,10.0,Calm,Calm,-,N/A,,Clear,0,2013-10-10 00:16:00
8:36 PM,52.2,50.4,94,30.20,10.0,Calm,Calm,-,N/A,,Clear,0,2013-10-10 00:36:00
8:56 PM,52.0,50.4,94,30.20,10.0,Calm,Calm,-,N/A,,Clear,0,2013-10-10 00:56:00
9:16 PM,51.1,49.6,95,30.20,10.0,Calm,Calm,-,N/A,,Clear,0,2013-10-10 01:16:00
9:36 PM,51.3,50.0,95,30.20,10.0,Calm,Calm,-,N/A,,Clear,0,2013-10-10 01:36:00
9:56 PM,50.7,49.5,95,30.20,7.0,Calm,Calm,-,N/A,,Clear,0,2013-10-10 01:56:00
10:16 PM,47.8,46.8,96,30.20,3.0,Calm,Calm,-,N/A,,Clear,0,2013-10-10 02:16:00
10:36 PM,48.7,47.8,97,30.20,5.0,Calm,Calm,-,N/A,,Clear,0,2013-10-10 02:36:00
10:56 PM,47.8,46.9,97,30.20,0.8,Calm,Calm,-,N/A,,Mist,0,2013-10-10 02:56:00
11:16 PM,46.9,46.0,97,30.20,2.0,Calm,Calm,-,N/A,,Clear,0,2013-10-10 03:16:00
11:36 PM,46.8,45.9,97,30.20,10.0,Calm,Calm,-,N/A,,Clear,0,2013-10-10 03:36:00
11:56 PM,45.3,44.4,97,30.20,1.8,Calm,Calm,-,N/A,,Mist,0,2013-10-10 03:56:00